COSMOS 1275 DEB, 39949

Orbit data source: Space-Track

COSMOS 1275 DEB, 39949 is space debris in LEO originally from a launch on Thu, 04 Jun 1981 UTC launched from the Plesetsk Missile And Space Complex (PKMTR). Debris objects in space refer to the collection of defunct objects orbiting the Earth. Examples of debris include non-operational satellites, rocket bodies, and fragments generated from explosions, collisions, or faulty payload assembly.

Loading next visibility...
Identifier
39949, 1981-053NK
Orbit
LEO
Country
Flag of CISCIS
Related business
Manufacturer
Unknown
Mission
Spacecraft
Bus & Motor
Unknown
Mass
Unknown
Launch date (UTC)
1981-06-04 (45 years ago)
Launch vehicle
Unknown
Launch site
Plesetsk Missile And Space Complex (PKMTR)
Object type
Payload
Rocket body
Debris
Shape & HBR
Unknown shape, 0.1 m
Radar Cross Section
Small (<0.1 m²)

Expand to show TLE details & history
Last TLE update: 2 weeks ago

TLE from 2 weeks ago
0 COSMOS 1275 DEB
1 39949U 81053NK  26160.19026568  .00000877  00000-0  64393-3 0  9993
2 39949  82.8217 319.1868 0021878 288.0803  71.7981 13.94627845 32888
Epoch: 2026-06-09T04:33Z
TLE epoch observation values (Epoch: 2026-06-09T04:33:58.954Z)
Latitude
0.00001°
Longitude
-6.87517°
Altitude
910.43 km
Speed
7.399 km/s
True Right ascension
21h 16m 44s
True Declination
0° 00' 00"
Sunlit
Object was in daylight at epoch
Visualization orbit readout
Latitude
Unknown
Longitude
Unknown
Altitude
Unknown
Speed
Unknown
Apparent Right ascension
Unknown
Apparent Declination
Unknown
Sunlit
N/A
Visualization observer readout
Local Sidereal Time
00:50:25
Azimuth
Unknown
Elevation
Unknown
Doppler factor
Unknown
Orbital elements
Apogee altitude
925.528 km
Perigee altitude
893.64 km
Semi-major axis
7,287.721 km
Eccentricity
0.00219
Inclination
82.8217°
RAAN
319.1868°
Arg. of periapsis
288.0803°
True anomaly
72.03646°
Mean anomaly
71.7981°
Eccentric anomaly
71.91726°
Mean motion
3.48864 °/min
Orbital period
103.19 mins
BSTAR
0.00064393
Loading maneuver chart data...
Computing Atmospheric mass density...

Documentation

Showing up to 5 results
|